Regional Weather Roundup
Issued by NWS Upton, NY

Current Version | Previous Version | Graphics & Text | Print | Product List | Glossary Off
Versions: 1 2 3 4 5 6 7 8 9 10 11 12 13 14 15 16 17 18 19 20 21 22 23 24 25 26 27 28 29 30 31 32 33 34 35 36 37 38 39 40 41 42 43 44 45 46 47 48 49 50

000
ASUS41 KOKX 221818
RWROKX

REGIONAL WEATHER ROUNDUP
NATIONAL WEATHER SERVICE NEW YORK NY
200 PM EDT FRI MAY 22 2015

NOTE: "FAIR" INDICATES FEW OR NO CLOUDS BELOW 12,000 FEET WITH NO
SIGNIFICANT WEATHER AND/OR OBSTRUCTIONS TO VISIBILITY.

NYZ071-072-176-178-NJZ106-104-221900-
NEW YORK CITY METRO AREA


CITY           SKY/WX    TMP DP  RH WIND       PRES   REMARKS
CENTRAL PARK   PTSUNNY   72  37  28 VRB5G22   29.93S
LAGUARDIA APRT PTSUNNY   74  37  26 W21G31    29.90F
KENNEDY INTL   MOSUNNY   75  35  23 W17G29    29.91F
NEWARK/LIBERTY PTSUNNY   74  39  28 NW18G24   29.91S
BRNX BOT. GARD   N/A     72  37  28 N12       29.93S
TETERBORO      PTSUNNY   74  38  27 W18       29.90S
$$

NYZ177-179-078>081-221900-
LONG ISLAND NEW YORK

CITY           SKY/WX    TMP DP  RH WIND       PRES   REMARKS
FARMINGDALE    MOSUNNY   72  41  32 W14G20    29.91S
ISLIP          PTSUNNY   72  39  30 W17G25    29.89S
SHIRLEY        MOSUNNY   73  40  30 W13G25    29.90S
WESTHAMPTON    MOSUNNY   73  40  30 W18G26    29.90S
MONTAUK POINT    N/A     70  42  36 SW12      29.88S
$$

NYZ052-065-067-221900-
HUDSON VALLEY

CITY           SKY/WX    TMP DP  RH WIND       PRES   REMARKS
WHITE PLAINS   MOSUNNY   71  38  29 NW21G32   29.90S
NEWBURGH       PTSUNNY   66  41  39 NW17G35   29.92S
MONTGOMERY     MOSUNNY   69  40  34 W15G26    29.91S
POUGHKEEPSIE   PTSUNNY   72  36  26 W17G30    29.89R
ALBANY         MOSUNNY   67  31  26 W21G26    29.91R
$$

NJZ001-105-106-008-010-013-015-019>022-104-221900-
NEW JERSEY

CITY           SKY/WX    TMP DP  RH WIND       PRES   REMARKS
NEWARK/LIBERTY PTSUNNY   74  39  28 NW18G24   29.91S
TETERBORO      PTSUNNY   74  38  27 W18       29.90S
CALDWELL       MOSUNNY   73  38  27 W16       29.92S
MORRISTOWN     PTSUNNY   73  43  33 W15G21    29.93S
SOMERVILLE     PTSUNNY   73  41  31 W13G26    29.93R
SUSSEX         PTSUNNY   67  39  35 W8        29.95S
ANDOVER          N/A     66  42  41 NW8       29.94S
TRENTON        MOSUNNY   73  41  31 W17G28    29.96R
MILLVILLE      MOSUNNY   73  44  35 W18G29    30.02F
ATLANTIC CITY  SUNNY     73  42  32 W20G26    30.00F
WRIGHTSTOWN    MOSUNNY   73  41  32 NW17G26   29.95S
TOMS RIVER     PTSUNNY  N/A N/A N/A W18G26    29.96F
BELMAR         PTSUNNY   72  43  35 NW17      29.95S
$$

PAZ047>061-062-071-221900-
EASTERN PENNSYLVANIA

CITY           SKY/WX    TMP DP  RH WIND       PRES   REMARKS
PHILADELPHIA   MOSUNNY   74  41  30 W17G28    30.00S
ALLENTOWN      MOSUNNY   71  42  35 W17G26    29.97S
SCRANTON       PTSUNNY   68  38  33 W15       29.96S
$$

CTZ002-004>006-009-010-012-RIZ004-006-007-MAZ004-011-015-221900-
SOUTHERN NEW ENGLAND
 IN CT

CITY           SKY/WX    TMP DP  RH WIND       PRES   REMARKS
BRADLEY INTL   MOSUNNY   74  33  22 W21G30    29.83F
HARTFORD       PTSUNNY   71  39  31 W13G24    29.85S
DANBURY        PTSUNNY   69  36  29 W18G32    29.91R
WTRBRY/OXFORD  MOSUNNY   68  39  34 NW14G23   29.90
BRIDGEPORT     MOSUNNY   73  37  27 W20G33    29.87F
MERIDEN        MOSUNNY   72  39  30 SW10G25   29.86S
NEW HAVEN      PTSUNNY   70  43  37 SW8       29.87F
CHESTER        FAIR      70  37  30 W8G16     29.87S
GROTON         PTSUNNY   64  44  48 W17G28    29.86R
WILLIMANTIC    MOSUNNY   71  37  28 W13G23    29.84S

 IN RI

CITY           SKY/WX    TMP DP  RH WIND       PRES   REMARKS
PROVIDENCE     MOSUNNY   70  35  27 NW10G26   29.82S
BLOCK ISLAND   SUNNY     64  45  48 SW20G26   29.87S
WESTERLY       PTSUNNY   64  44  48 SW15G23   29.86S

 IN MA

CITY           SKY/WX    TMP DP  RH WIND       PRES   REMARKS
BOSTON         PTSUNNY   74  35  24 SW17G23   29.77F
WORCESTER      MOSUNNY   68  31  25 NW20G29   29.82S
WESTFIELD      MOSUNNY   72  31  22 NW16G24   29.84S
PROVINCETOWN   SUNNY     66  46  48 SE3       29.80F
NANTUCKET      SUNNY     58  50  75 SW15      29.85S
$$

ANZ330-335-338-340-345-350-353-355-221900-
COASTAL MARINE OBSERVATIONS


STATION/POSITION TIME  SKY/WX   TEMP    WIND        PRES    VSBY  WAVE
                                AIR SEA DIR/SP/G                  HT/PER
                 (UTC)          (F)     (DEG/KT/KT) (MB)    (MI)  (FT/S)
NY HARB ENTRANCE 1750            60 57  200/ 10/ 12 1013.2          1/ 8
4S FIRE IS       1703               54                N/A           3/ 4
20S FIRE ISLAND  1750            58 55  230/ 14/ 17 1013.7          2/ 4
GREAT SOUTH BAY  1730            62 64  240/ 16/ 21   N/A
23SW MTP         1750            56 55  250/ 16/ 19 1012.2          2/ 4
HUDSON CANYON    NOT AVBL
KINGS POINT      1700            67 54  320/  6/ 16 1012.1
CENTRAL LI SOUND 1700            58 52  230/ 12/ 14   N/A
EASTERN LI SOUND 1700            55     240/ 14/ 17   N/A
ROBBINS REEF     1700            69     300/ 23/ 28 1011.7
$$


>>>>>>>>>>>>>>>>>>>>>>>>>>>> KEY <<<<<<<<<<<<<<<<<<<<<<<<<<<
>                                                          <
>     SKY/WX - SKY CONDITION/PRESENT WEATHER               <
>     TMP    - TEMPERATURE IN FAHRENHEIT                   <
>     DP     - DEWPOINT IN FAHRENHEIT                      <
>     RH     - RELATIVE HUMIDITY IN PERCENT                <
>     WIND   - DIRECTION AND SPEED IN MPH                  <
>     PRES   - MEAN SEA LEVEL PRESSURE IN INCHES OF HG     <
>     WCI    - WIND CHILL INDEX                            <
>     VSB    - VISIBILITY IN MILES                         <
>     HX     - HEAT INDEX                                  <
>     TC     - TEMPERATURE IN CELSIUS                      <
>     VRB    - VARIABLE WIND DIRECTION                     <
>                                                          <
>>>>>>>>>>>>>>>>>>>>>>>>>>>> KEY <<<<<<<<<<<<<<<<<<<<<<<<<<<




USA.gov is the U.S. government's official web portal to all federal, state and local government web resources and services.